#timestamp,LO_Frequency,Hit,StdDev 
1513803615.2,286046994.2,N
1513803635.0,286046991.6,P
1513803636.0,286046991.6,Y
1513803655.8,286046994.9,P
1513803675.6,286046991.9,P
1513803695.4,286046994.1,P
1513803715.3,286046995.3,Y
1513803735.1,286047002.6,P
1513803755.8,286046996.6,N
1513803775.7,286046998.6,N
1513803795.5,286047002.1,N
1513803815.3,286047002.1,N
1513803835.2,286046998.6,N
1513803855.9,286047001.1,N
1513803875.7,286047000.9,N
1513803895.6,286046999.4,N
1513803915.4,286046997.7,N
1513803935.2,286046996.5,N
1513803955.1,286047000.4,N
1513803956.0,286047000.4,N
1513803975.8,286046999.6,N
1513803995.6,286046995.7,N
1513804015.5,286046991.9,Y
1513804035.3,286046992.5,P
1513804055.1,286046993.6,N
1513804075.9,286046994.6,N
1513804095.7,286046993.1,N
1513804115.5,286046991.2,Y
1513804135.4,286046996.8,P
1513804155.2,286046996.8,N
1513804175.0,286046994.7,P
1513804175.9,286046994.7,Y
1513804195.8,286046991.9,P
1513804215.6,286046990.7,P
1513804235.4,286046987.0,P
1513804255.3,286046983.7,Y
1513804275.1,286046996.4,P
1513804276.0,286046996.4,N
1513804295.8,286046995.5,N
1513804315.7,286046996.8,N
1513804335.5,286046999.5,N
1513804355.3,286046998.1,N
1513804375.1,286046996.9,N
1513804395.9,286046998.0,N
1513804415.7,286046993.6,N
1513804435.5,286046994.2,N
1513804455.4,286046995.5,N
1513804475.2,286046993.3,Y
1513804495.0,286047001.1,P
1513804495.9,286047001.1,N
1513804515.8,286046998.5,N
1513804535.6,286047001.0,N
1513804555.4,286046999.9,N
1513804575.3,286046997.1,N
1513804595.1,286046997.4,N
1513804596.0,286046997.4,N
1513804615.8,286047002.4,N
1513804635.7,286046997.7,N
1513804655.5,286046999.5,N
1513804675.3,286046994.9,N
1513804695.2,286046995.7,N
1513804715.9,286046997.0,N
1513804735.7,286047002.5,N
1513804755.5,286047001.0,N
1513804775.4,286046998.8,N
1513804795.2,286046997.4,N
1513804815.0,286046993.4,N
1513804815.9,286046993.4,N
1513804835.8,286046997.1,N
1513804855.6,286047002.8,N
1513804875.4,286047000.3,N
1513804895.3,286046998.8,N
1513804915.1,286047001.2,N
1513804916.0,286047001.2,N
1513804935.8,286046999.6,N
1513804955.7,286046998.2,N
1513804975.5,286047001.2,N
1513804995.3,286046999.7,N
1513805015.2,286047001.7,N
1513805035.9,286047002.9,N
1513805055.7,286047001.5,N
1513805075.5,286047001.0,N
1513805095.4,286047001.7,N
1513805115.2,286047005.5,N
1513805135.0,286047007.5,N
1513805135.9,286047007.5,N
1513805155.8,286047006.9,N
1513805175.6,286047008.3,N
1513805195.4,286047009.9,N
1513805215.3,286047007.5,N
1513805235.1,286047006.9,N
1513805255.8,286047011.2,N
1513805275.7,286047017.5,Y
1513805295.5,286047014.8,P
1513805315.3,286047017.2,N
1513805335.2,286047017.2,N
1513805355.9,286047015.8,N
1513805375.7,286047019.2,Y
1513805395.6,286047002.9,P
1513805415.4,286047004.9,N
1513805435.2,286047007.3,N
1513805455.1,286047004.1,N
1513805456.0,286047004.1,N
1513805475.8,286047004.3,N
1513805495.6,286047001.5,N
1513805515.5,286047000.9,N
1513805535.3,286046998.9,N
1513805555.1,286046994.1,N
1513805575.8,286046995.2,N
1513805595.7,286046997.8,N
1513805615.5,286046995.7,N
1513805635.3,286046994.9,N
1513805655.2,286046993.8,N
1513805675.9,286046988.5,N
1513805695.7,286046985.4,N
1513805715.6,286046989.3,N
1513805735.4,286046990.0,N
1513805755.2,286046985.5,N
1513805775.1,286046988.4,N
1513805776.0,286046988.4,N
1513805795.8,286046982.9,N
1513805815.6,286046985.1,N
1513805835.4,286046984.6,N
1513805855.3,286046983.8,N
1513805875.1,286046988.0,N
1513805895.8,286046984.5,N
1513805915.7,286046988.3,N
1513805935.5,286046987.9,N
1513805955.3,286046986.8,N
1513805975.2,286046981.1,N
1513805995.9,286046984.8,N
1513806015.7,286046979.1,Y
1513806035.6,286046989.6,P
1513806055.4,286046989.0,P
1513806075.2,286046989.6,P
1513806095.1,286046985.9,Y
1513806096.0,286046985.9,P
1513806115.8,286046994.0,P
1513806135.6,286046994.7,N
1513806155.5,286046990.3,N
1513806175.3,286046986.7,Y
1513806195.1,286046996.1,P
1513806215.9,286046997.1,N
1513806235.7,286046995.6,N
1513806255.5,286046994.6,N
1513806275.4,286046990.3,Y
1513806295.2,286046994.4,P
1513806315.0,286046992.7,P
1513806315.9,286046992.7,P
1513806335.8,286046996.2,Y
1513806355.6,286047000.0,P
1513806375.4,286046996.9,N
1513806395.3,286046998.8,N
1513806415.1,286047002.9,N
1513806416.0,286047002.9,N
1513806435.8,286046999.9,N
1513806455.7,286047002.2,N
1513806475.5,286047006.4,N
1513806495.3,286047004.6,N
1513806515.2,286047004.7,N
1513806535.9,286047009.1,N
1513806555.7,286047006.6,N
1513806575.5,286047003.3,N
1513806595.4,286047003.2,N
1513806615.2,286047001.4,N
1513806635.0,286047005.3,N
1513806635.9,286047005.3,N
1513806655.8,286047007.8,N
1513806675.6,286047006.2,N
1513806695.4,286047009.1,N
1513806715.3,286047008.9,N
1513806735.1,286047010.8,N
1513806736.0,286047010.8,N
1513806755.8,286047007.5,N
1513806775.7,286047010.6,N
1513806795.5,286047011.3,N
1513806815.3,286047008.5,N
1513806835.2,286047011.8,N
1513806855.9,286047018.0,Y
1513806875.7,286047018.6,P
1513806895.6,286047014.5,N
1513806915.4,286047014.6,N
1513806935.2,286047013.0,N
1513806955.0,286047011.4,N
1513806956.0,286047011.4,N
1513806975.8,286047014.3,Y
1513806995.6,286047004.1,P
1513807015.5,286047001.7,N
1513807035.3,286047004.7,N
1513807055.1,286047007.4,N
1513807075.8,286047005.7,N
1513807095.7,286047008.5,N
1513807115.5,286047005.1,N
1513807135.3,286047009.1,N
1513807155.2,286047011.1,Y
1513807175.0,286047005.8,P
1513807175.9,286047005.8,P
1513807195.7,286047001.8,P
